COSMOS 482 DESCENT CRAFT (6073 NORAD) Tracking and Keplerian Element Data

This shows tracking and keplerian element data for the satellite.

Feedback or suggestion? Click here.




ElementValue
Catalog6073
NameCOSMOS 482 DESCENT CRAFT
Epoch Orbit61299
Epoch Day270.19507701
Epoch Year2022
RAAN341.521
Inclination52.0236
Eccentricity0.1118832
Argument of Perigee34.4775
Mean Anonmoly332.3804
Mean Motion13.63096584
Decay Rate0.00060701
L11 06073U 72023E 22270.19507701 .00060701 69375-5 18948-3 0 9995
L22 06073 52.0236 341.5210 1118832 34.4775 332.3804 13.63096584612991

Live tracking and technical data element details for COSMOS 482 DESCENT CRAFT (NORAD 6073). COSMOS 482 DESCENT CRAFT can be tracked NOW for your location showing map with azimuth and elevation plus other details from your city location.

Track the satellite on the map from your city or location and see movement details for azimuth, elevation, latitude, longitude, range, height, and movement on the map or in text.







IsCatalogInMostPopularTable: catalog: 6073, numindb: 630
Update: records affected: 1



GetName: 6073 COSMOS 482 DESCENT CRAFT

Hit Count: updated at: Thu, 29 Sep 2022 10:17:12 GMT